Regional Weather Roundup
Issued by NWS

Home | Current Version | Previous Version | Text Only | Print | Product List | Glossary On
Versions: 1 2 3 4 5 6 7 8 9 10 11 12 13 14 15 16 17 18 19 20 21 22 23 24 25 26 27 28 29 30 31 32 33 34 35 36 37 38 39 40 41 42 43 44 45 46 47 48 49 50
000
ASUS43 KLSX 221359
RWRMO

WEATHER SUMMARY FOR MISSOURI
NATIONAL WEATHER SERVICE SPRINGFIELD MO
800 AM CST SAT NOV 22 2014

NOTE: "FAIR" INDICATES FEW OR NO CLOUDS BELOW 12,000 FEET WITH NO
       SIGNIFICANT WEATHER AND/OR OBSTRUCTIONS TO VISIBILITY.
       CURRENT SKY AND/OR WEATHER CONDITIONS ARE NOT AVAILABLE FOR
       CHILLICOTHE AND FARMINGTON.

MOZ001>031-035>038-043-044-053-054-221500-
...NORTHERN AND WESTERN MISSOURI...

CITY           SKY/WX    TMP DP  RH WIND       PRES   REMARKS
KANSAS CTY INT DRZL/FOG  53  53 100 SW13      29.95S VSB 1/4
KANSAS C DTWN  CLOUDY    55  53  93 SW8       29.95F FOG
ST JOSEPH      FOG       43  43 100 S5        29.94F VSB 1/4
CHILLICOTHE      N/A     51  50  96 S5        29.97S
KIRKSVILLE     CLOUDY    51  47  86 S12       29.96F

$$
MOZ066>068-077>081-088>096-101>105-221500-
...SOUTHWEST MISSOURI...

CITY           SKY/WX    TMP DP  RH WIND       PRES   REMARKS
SPRINGFIELD    CLOUDY    51  45  79 S13       30.07S
JOPLIN         CLOUDY    57  50  77 S17G24    30.04S

$$
MOZ032>034-039>042-045>050-055>058-069>072-221500-
...CENTRAL MISSOURI...

CITY           SKY/WX    TMP DP  RH WIND       PRES   REMARKS
COLUMBIA       PTCLDY    51  45  79 S14       30.04S
JEFFERSON CITY PTCLDY    52  44  74 VRB3      30.06S
ROLLA          CLOUDY    50  44  80 S14       30.07S
SEDALIA        CLOUDY    54  47  77 S14       30.02S
WHITEMAN AFB   MOCLDY    52  48  87 S15       29.99S
WARRENSBURG    CLOUDY    52  46  82 S12       30.00R
OSAGE BEACH    CLOUDY    48  43  81 S8        30.07R

$$
MOZ051-052-059>065-221500-
...EAST CENTRAL MISSOURI...

CITY           SKY/WX    TMP DP  RH WIND       PRES   REMARKS
ST LOUIS INTL  PTSUNNY   50  42  74 S8        30.10S
SPIRIT OF STL  CLOUDY    51  43  74 S6        30.09S
ST CHARLES     CLOUDY    42  39  89 E5        30.09S

$$
MOZ072>076-082>087-097>100-106>115-221500-
...SOUTH CENTRAL AND SOUTHEAST MISSOURI...

CITY           SKY/WX    TMP DP  RH WIND       PRES   REMARKS
CAPE GIRARDEAU CLOUDY    51  45  79 S12       30.22S
FARMINGTON     CLOUDY    48  43  81 SE13      30.17S
POPLAR BLUFF   CLOUDY    47  43  86 SE6       30.20F
WEST PLAINS    CLOUDY    48  44  86 S8        30.15S

$$



USA.gov is the U.S. government's official web portal to all federal, state and local government web resources and services.